Weather History for St. Joseph, MO

Change the Weather History Date:

Wednesday, January 23, 2013

  Actual Average Record
Temperature  
Mean Temperature 28 °F 28 °F  
Max Temperature 43 °F 38 °F 68 °F (1967)
Min Temperature 13 °F 18 °F -12 °F (1963)
Degree Days  
Heating Degree Days 37 37  
Month to date heating degree days 818 874  
Since 1 July heating degree days 2914 3087  
Cooling Degree Days 0 0  
Month to date cooling degree days 0 0  
Year to date cooling degree days 0 0  
Moisture  
Dew Point 12 °F    
Average Humidity 56    
Maximum Humidity 76    
Minimum Humidity 36    
Precipitation  
Precipitation 0.00 in 0.02 in 0.98 in (1938)
Month to date precipitation 0.30 0.39  
Year to date precipitation 0.30 0.39  
Sea Level Pressure  
Sea Level Pressure 30.32 in    
Wind  
Wind Speed 8 mph (NNE)    
Max Wind Speed 18 mph    
Max Gust Speed 22 mph    
Visibility 10 miles    
Events      
T = Trace of Precipitation, MM = Missing Value Source: NWS Daily Summary

Daily Weather History Graph

Daily Weather History Graph

Search for Another Location

Airport:

Trip Planner

Search our weather history database for the weather conditions in past years. The results will help you decide how hot, cold, wet, or windy it might be!

Date:

Astronomy

Jan. 23, 2013 Rise Set
Actual Time 7:34 AM CST 5:28 PM CST
Civil Twilight 7:05 AM CST 5:58 PM CST
Nautical Twilight 6:32 AM CST 6:30 PM CST
Astronomical Twilight 6:00 AM CST 7:02 PM CST
Moon 2:40 PM CST (1/23) 4:46 AM CST (1/23)
Length of Visible Light 10h 52m
Length of Day
9h 54m
Waxing Gibbous, 89% of the Moon is Illuminated
Jan 23
Waxing Gibbous
Jan 26
Full
Feb 3
Last Quarter
Feb 10
New
Feb 17
First Quarter

Hourly Weather History & Observations

Time (CST) Temp. Windchill Dew Point Humidity Pressure Visibility Wind Dir Wind Speed Gust Speed Precip Events Conditions
12:53 AM 18.0 °F 11.1 °F 6.1 °F 60% 30.33 in 10.0 mi SE 4.6 mph - N/A   Clear
1:53 AM 17.1 °F 11.7 °F 7.0 °F 65% 30.31 in 10.0 mi SE 3.5 mph - N/A   Clear
2:53 AM 17.1 °F - 7.0 °F 65% 30.31 in 10.0 mi Calm Calm - N/A   Clear
3:53 AM 15.1 °F 9.4 °F 7.0 °F 70% 30.29 in 10.0 mi SE 3.5 mph - N/A   Clear
4:53 AM 15.1 °F - 7.0 °F 70% 30.28 in 10.0 mi Calm Calm - N/A   Clear
5:53 AM 14.0 °F 5.1 °F 6.1 °F 71% 30.28 in 10.0 mi SSE 5.8 mph - N/A   Clear
6:53 AM 12.9 °F 5.2 °F 6.1 °F 74% 30.27 in 10.0 mi South 4.6 mph - N/A   Clear
7:53 AM 14.0 °F 8.2 °F 7.0 °F 74% 30.26 in 10.0 mi South 3.5 mph - N/A   Clear
8:53 AM 19.0 °F - 10.0 °F 68% 30.27 in 10.0 mi Calm Calm - N/A   Clear
9:53 AM 24.1 °F 19.7 °F 12.9 °F 62% 30.28 in 10.0 mi SSW 3.5 mph - N/A   Clear
10:53 AM 28.9 °F - 15.1 °F 56% 30.28 in 9.0 mi Calm Calm - N/A   Clear
11:53 AM 36.0 °F 32.1 °F 17.1 °F 46% 30.26 in 10.0 mi SSE 4.6 mph - N/A   Clear
12:53 PM 41.0 °F 33.5 °F 19.0 °F 41% 30.24 in 10.0 mi NNW 13.8 mph - N/A   Clear
1:53 PM 42.1 °F 35.7 °F 18.0 °F 38% 30.23 in 10.0 mi NW 11.5 mph - N/A   Clear
2:53 PM 43.0 °F 37.2 °F 19.0 °F 38% 30.24 in 10.0 mi North 10.4 mph - N/A   Clear
3:53 PM 42.1 °F 34.9 °F 19.9 °F 41% 30.25 in 10.0 mi NNW 13.8 mph - N/A   Clear
4:53 PM 36.0 °F 26.7 °F 19.0 °F 50% 30.29 in 10.0 mi North 15.0 mph - N/A   Clear
5:53 PM 33.1 °F 24.4 °F 18.0 °F 54% 30.32 in 10.0 mi North 11.5 mph - N/A   Clear
6:53 PM 28.9 °F 19.8 °F 16.0 °F 58% 30.36 in 10.0 mi North 10.4 mph - N/A   Clear
7:53 PM 28.0 °F 18.6 °F 16.0 °F 61% 30.40 in 10.0 mi North 10.4 mph - N/A   Clear
8:53 PM 26.1 °F 15.0 °F 14.0 °F 60% 30.42 in 10.0 mi North 12.7 mph - N/A   Clear
9:53 PM 24.1 °F 12.5 °F 12.9 °F 62% 30.46 in 10.0 mi North 12.7 mph - N/A   Clear
10:53 PM 21.0 °F 7.6 °F 9.0 °F 60% 30.48 in 10.0 mi NNE 15.0 mph - N/A   Clear
11:53 PM 19.0 °F 5.6 °F 3.0 °F 50% 30.51 in 10.0 mi NNE 13.8 mph - N/A   Clear